Regional Weather Roundup
Issued by NWS Newport/Morehead, NC

Current Version | Previous Version | Text Only | Print | Product List | Glossary On
Versions: 1 2 3 4 5 6 7 8 9 10 11 12 13 14 15 16 17 18 19 20 21 22 23 24 25 26 27 28 29 30 31 32 33 34 35 36 37 38 39 40 41 42 43 44 45 46 47 48 49 50
000
ASUS42 KMHX 181410
RWRMHX
WEATHER ROUNDUP FOR EASTERN NORTH CAROLINA
NATIONAL WEATHER SERVICE NEWPORT/MOREHEAD CITY NC
1000 AM EDT FRI APR 18 2014

NOTE: "FAIR" INDICATES FEW OR NO CLOUDS BELOW 12,000 FEET
WITH NO SIGNIFICANT WEATHER AND/OR OBSTRUCTIONS TO VISIBILITY

NCZ015>017-031-032-045>047-102-103-181500-
NORTH COAST

CITY           SKY/WX    TMP DP  RH WIND       PRES   REMARKS
EDENTON        MOSUNNY   49  42  74 N9        30.43R
ELIZABETH CITY SUNNY     50  40  68 N16G23    30.43S
KITTY HAWK     CLOUDY    48  42  82 N14G24    30.38F
MANTEO         CLOUDY    48  43  81 NE21G26   30.39S

$$

NCZ045>047-081-094-103-104-181500-
CENTRAL COAST

CITY           SKY/WX    TMP DP  RH WIND       PRES   REMARKS
FRISCO         CLOUDY    49  45  86 NE10G24   30.37S
SWANQUARTER      N/A     54 N/A N/A NE9G17    30.36R

$$

NCZ095-097-098-100-101-181500-
SOUTHERN COAST

CITY           SKY/WX    TMP DP  RH WIND       PRES   REMARKS
BEAUFORT       PTSUNNY   56  47  71 NE15G23   30.36R
CEDAR ISLAND     N/A     54 N/A N/A N7G18     30.41R
JACKSONVILLE   NOT AVBL
NEWPORT          N/A     55  46  71 N13         N/A
PINEY ISLAND   CLOUDY    54  47  77 N17G25    30.37S
WILMINGTON     CLOUDY    55  42  61 N10       30.36R


$$

NCZ011>013-027>030-043-044-078>080-089-090>093-098-181500-
COASTAL PLAIN

CITY           SKY/WX    TMP DP  RH WIND       PRES   REMARKS
AHOSKIE        MOSUNNY   47  38  72 NE7       30.45R
CLINTON        PTSUNNY   49  41  72 NE9       30.39F
ELIZABETHTOWN  CLOUDY    49  40  72 N5        30.38S
GOLDSBORO      SUNNY     49  41  74 N8        30.39F
GREENVILLE     SUNNY     50  41  71 NE8       30.42S
HAVELOCK       MOSUNNY   54  44  69 N12       30.39R
KENANSVILLE    MOSUNNY   48  39  71 NE8       30.40F
KINSTON        SUNNY     50  41  71 N12       30.41S
NEW BERN       PTSUNNY   52  44  74 N10       30.40R
RICHLANDS      MOSUNNY   52  39  62 N8        30.39S
ROANOKE RAPIDS NOT AVBL
ROCKY MOUNT      N/A    N/A N/A N/A MISG      30.44R
WASHINGTON     CLOUDY    46  42  84 N9        30.42S
WHITEVILLE     CLOUDY    49  40  71 N8        30.36F

$$

AMZ130-135-150-152-154-156-158-170-250-252-270-ANZ085-086-088-633-658-670-181500-
MARINE OBSERVATIONS

STATION/POSITION TIME  TEMP    WIND        PRES    WAVE   SWELL
                       AIR SEA DIR/SP/G            HT/PER HT/PER
                 (UTC) (F)     (DEG/KT/KT) (MB)    (FT/S) (FT/S)
CHESAPEAKE LIGHT 1300   44      40/ 17/ 18 1031.4
BUOY 44014       1400   49 49   20/ 19/ 21 1028.8    8/ 9   7/ 9
DUCK             1400   46 51   10/ 17/ 22 1028.5
2E DUCK          1400      50                N/A     7/ 9   3/11
OREGON INLET     1400   47 50   10/ 14/ 21 1029.0
BUOY 44095       1400      48                N/A     9/12   3/12
HATTERAS CG      1400   48 55   20/ 19/ 25 1028.4
DIAMOND BUOY     NOT AVBL
CAPE LOOKOUT     1300   52      10/ 14/ 18 1027.6
BEAUFORT LAB     1400   53 57   10/ 13/ 17 1027.4
30 SE NEW RIVER  1400   54 62   40/ 19/ 23 1026.9    7/10   3/10
5 SE WRIGHTSVILL 1300   49 59   20/ 16/ 19 1027.2
FRYING PAN BUOY  1400   57 64   50/ 19/ 23 1025.7    8/ 7   3/10
BUOY 41001       NOT AVBL
BUOY 41002       NOT AVBL
BUOY 41004       NOT AVBL

$$



USA.gov is the U.S. government's official web portal to all federal, state and local government web resources and services.